Temp
64 64 64 65 64 65 65 65 65 64 64 64 65 64 64 65 66 72 64 69 68 70 68 67 69 70 69 64 64 60 50 48 50 53 53 59 57 63 60 55 55 57 53 55 56
63 63 64 64 64 64 64 64 64 64 64 64 64 64 64 64 70 66 70 71 71 70 69 68 67 69 63 62 61 55 48 51 55 53 53 56 57 58 55 53 50 52 55 56 55
62 62 63 63 63 64 64 64 63 63 64 63 63 64 64 64 67 65 71 72 72 70 68 69 69 66 61 61 57 55 51 56 57 59 59 56 56 56 53 47 48 48 50 52 52
61 61 62 62 62 63 64 64 63 63 64 63 63 63 63 67 56 67 70 71 71 71 70 69 66 60 56 55 59 52 59 59 59 58 58 55 56 52 51 49 53 52 52 51 49
60 60 60 61 61 62 63 63 63 63 63 63 63 64 65 63 63 71 70 71 72 71 68 65 62 58 54 55 57 53 56 59 59 59 56 58 55 50 48 51 54 54 52 49 48
60 59 60 60 61 62 62 63 63 63 63 63 64 62 65 59 69 72 70 69 68 67 64 64 59 60 56 56 54 54 56 57 57 58 57 55 53 52 50 51 51 52 49 48 48
60 59 59 59 60 61 62 62 63 63 63 64 64 67 65 63 70 68 69 64 64 64 63 62 60 58 58 55 57 55 51 53 55 56 55 54 49 50 52 51 50 49 48 48 48
59 59 59 59 60 61 61 62 63 63 63 64 64 63 60 68 65 69 69 65 66 66 64 62 61 58 55 58 55 49 48 43 53 55 55 52 43 46 51 49 45 45 43 46 47
59 58 58 59 59 60 60 62 62 63 65 65 62 62 58 68 66 67 65 64 64 64 62 68 60 55 55 48 45 45 40 44 47 55 51 49 45 50 50 48 43 42 44 45 45
59 58 58 59 59 60 60 63 64 65 67 70 72 61 63 61 64 65 64 64 61 60 60 57 54 49 48 46 39 40 40 44 43 51 50 46 46 47 47 46 42 41 42 43 43
59 58 58 58 59 60 58 64 61 62 61 60 60 59 61 64 64 63 64 62 61 58 51 54 49 44 45 46 46 45 43 41 46 52 48 45 45 43 45 43 39 39 40 41 43
61 58 58 58 59 60 58 55 51 52 50 58 57 58 61 60 57 62 65 57 56 49 52 48 45 51 53 52 49 46 42 41 47 49 45 44 43 48 45 43 42 40 40 40 41
60 58 57 58 58 59 54 52 55 53 47 54 58 58 58 60 57 57 59 56 52 48 47 45 50 53 51 46 46 43 41 40 42 44 45 42 38 39 41 42 42 43 42 41 41
60 57 57 58 59 56 51 54 55 52 44 52 53 57 59 58 53 59 58 55 52 47 47 47 51 49 45 46 47 39 44 43 41 36 31 39 30 32 37 39 41 41 37 38 39
58 57 57 58 52 56 53 54 53 50 30 53 54 61 59 55 54 54 56 54 48 50 49 47 46 46 44 46 47 43 43 41 39 36 31 35 29 34 38 35 37 36 37 37 39
58 57 56 56 52 50 51 51 50 45 33 50 54 53 52 52 53 54 53 54 52 46 46 47 47 47 46 45 45 45 41 40 37 33 23 34 34 29 31 38 38 36 36 39 39
57 56 54 56 52 50 50 50 42 35 53 49 49 51 49 49 50 50 48 45 45 39 38 43 43 42 45 40 42 40 35 27 23 21 24 32 28 37 37 40 40 35 35 37 37
56 55 54 56 51 50 50 47 32 45 48 51 50 48 47 50 48 46 42 41 45 42 36 34 33 41 44 41 39 37 36 26 19 18 24 31 26 33 36 39 39 38 36 37 36
55 49 49 52 52 50 47 34 38 45 52 49 46 41 42 46 44 42 39 40 45 45 39 35 36 40 41 41 41 36 31 36 27 8 12 24 30 35 35 36 35 34 35 34 35
54 52 51 54 52 48 40 43 45 53 52 50 44 46 40 43 41 39 40 45 44 45 44 39 33 37 37 39 38 36 39 29 29 17 10 21 26 31 30 33 33 33 32 34 33
52 46 49 52 51 43 37 39 48 54 54 49 44 44 45 44 41 38 41 45 45 39 41 39 35 32 35 32 33 30 30 32 32 28 20 13 25 34 35 36 32 32 34 34 33
50 41 48 51 40 38 40 44 50 50 55 52 47 48 45 45 41 41 43 48 44 41 38 38 33 25 31 36 37 34 33 35 28 24 25 25 26 40 39 37 34 33 34 35 36
46 45 50 49 38 38 42 45 50 47 50 47 46 48 49 44 40 43 44 40 43 42 36 37 30 20 29 28 33 31 31 34 33 31 25 21 24 37 36 34 34 31 32 34 34
44 39 43 44 43 40 40 42 43 49 50 49 47 48 44 41 46 40 39 38 39 38 44 42 31 34 32 39 34 29 29 33 33 27 27 28 31 34 34 34 31 31 32 31 31
43 40 44 36 38 40 43 42 43 42 46 50 46 47 45 39 37 39 40 32 35 40 38 37 27 29 34 34 31 32 32 32 30 32 27 29 31 37 42 41 38 33 32 30 29
44 39 39 38 41 39 41 39 40 42 45 44 45 44 47 43 44 36 42 37 35 32 32 32 26 28 27 29 29 27 30 31 32 33 32 32 31 44 44 36 30 30 30 29 28
52 49 49 44 40 37 38 40 42 45 47 49 47 46 42 44 49 47 42 41 42 33 30 27 27 23 24 27 23 19 25 27 31 33 33 25 34 42 38 34 30 29 29 28 28
MSLP
1019.48 1019.09 1018.65 1018.06 1017.62 1017.10 1016.82 1016.39 1015.98 1015.69 1015.36 1015.20 1014.99 1014.65 1014.36 1014.16 1013.84 1013.70 1014.63 1015.09 1014.70 1014.11 1014.00 1013.39 1012.81 1012.53 1012.32 1012.51 1012.54 1012.83 1013.82 1014.12 1013.59 1013.38 1013.92 1013.60 1013.88 1014.69 1015.75 1016.77 1017.70 1018.70 1019.57 1020.72 1020.67
1019.67 1019.21 1018.79 1018.24 1017.67 1017.09 1016.61 1016.32 1016.00 1015.64 1015.46 1015.20 1014.95 1014.63 1014.35 1014.24 1014.30 1014.60 1015.11 1014.70 1014.31 1013.99 1013.80 1013.55 1013.12 1012.77 1012.77 1012.68 1012.85 1013.17 1013.94 1013.78 1013.62 1013.65 1013.95 1014.04 1014.29 1014.94 1016.36 1017.94 1019.31 1019.93 1020.42 1020.57 1020.74
1019.81 1019.28 1018.86 1018.36 1017.77 1017.18 1016.47 1016.09 1015.90 1015.51 1015.20 1015.21 1014.93 1014.62 1014.46 1014.13 1014.53 1015.11 1014.77 1014.33 1014.01 1013.83 1013.82 1013.48 1013.13 1012.99 1012.98 1012.90 1013.21 1013.37 1013.62 1013.51 1014.02 1013.77 1013.90 1014.29 1015.05 1015.61 1016.94 1018.57 1019.25 1020.21 1020.76 1021.09 1021.36
1019.95 1019.43 1018.87 1018.36 1017.81 1017.12 1016.54 1016.01 1015.60 1015.36 1014.99 1015.01 1014.83 1014.57 1014.42 1014.14 1015.03 1014.95 1014.53 1014.09 1013.70 1013.45 1013.49 1013.31 1013.16 1013.28 1013.41 1013.47 1013.39 1013.69 1013.41 1013.41 1013.72 1014.07 1014.23 1014.71 1015.49 1016.78 1017.45 1018.88 1019.46 1019.97 1020.57 1021.17 1021.66
1020.05 1019.54 1018.97 1018.46 1017.81 1017.09 1016.54 1015.95 1015.44 1015.16 1014.83 1014.72 1014.65 1014.45 1014.35 1014.45 1014.78 1014.54 1014.41 1014.13 1013.68 1013.54 1013.77 1013.85 1013.95 1014.03 1013.94 1013.87 1013.86 1013.79 1013.61 1013.60 1013.81 1014.15 1014.48 1014.88 1015.92 1017.47 1018.98 1019.30 1019.76 1020.25 1020.88 1021.62 1022.02
1020.07 1019.68 1019.09 1018.47 1017.86 1017.08 1016.43 1015.85 1015.32 1014.96 1014.72 1014.52 1014.51 1014.43 1014.33 1014.73 1014.49 1014.41 1014.41 1014.23 1014.20 1014.03 1014.21 1014.36 1014.57 1014.50 1014.37 1014.10 1014.27 1014.25 1014.25 1014.18 1014.26 1014.47 1014.69 1015.26 1016.58 1017.21 1019.64 1019.93 1020.39 1020.82 1021.49 1021.91 1022.09
1020.13 1019.73 1019.16 1018.54 1017.83 1017.03 1016.27 1015.52 1015.18 1014.70 1014.41 1014.29 1014.42 1014.31 1014.19 1014.49 1014.36 1014.37 1014.44 1014.53 1014.45 1014.42 1014.49 1014.73 1014.74 1014.78 1014.69 1014.54 1014.50 1014.43 1014.71 1014.50 1014.58 1014.79 1015.08 1015.53 1016.66 1017.64 1019.20 1020.09 1020.63 1021.05 1021.40 1021.77 1021.90
1020.21 1019.81 1019.26 1018.63 1017.78 1016.91 1016.12 1015.16 1014.86 1014.31 1014.06 1014.05 1014.25 1014.11 1014.23 1014.25 1014.40 1014.39 1014.46 1014.58 1014.47 1014.48 1014.55 1014.75 1014.79 1014.93 1015.03 1014.90 1014.95 1015.14 1015.31 1015.46 1014.66 1015.00 1015.19 1015.68 1016.66 1018.01 1018.78 1019.69 1020.57 1021.02 1021.29 1021.33 1021.36
1020.28 1019.77 1019.35 1018.64 1017.94 1016.97 1015.97 1014.83 1014.24 1013.81 1013.86 1013.90 1014.17 1013.87 1014.35 1014.31 1014.50 1014.54 1014.49 1014.53 1014.41 1014.52 1014.66 1014.79 1014.98 1015.23 1015.34 1015.51 1015.76 1015.78 1015.92 1015.66 1015.29 1015.19 1015.68 1016.36 1016.86 1017.93 1018.87 1019.41 1020.27 1020.64 1020.89 1020.97 1021.16
1020.18 1019.77 1019.33 1018.75 1018.07 1016.95 1015.78 1014.40 1013.77 1013.76 1013.77 1013.78 1013.79 1014.29 1014.64 1014.51 1014.53 1014.63 1014.48 1014.44 1014.35 1014.45 1014.90 1015.04 1015.36 1015.63 1016.02 1016.16 1016.48 1016.39 1016.38 1015.93 1015.74 1015.55 1015.90 1016.39 1016.95 1018.02 1018.92 1019.54 1020.30 1020.87 1021.10 1021.31 1021.26
1020.18 1019.73 1019.26 1018.75 1018.06 1017.10 1016.05 1014.86 1015.19 1015.18 1015.25 1015.26 1014.85 1014.75 1014.81 1014.79 1014.53 1014.53 1014.43 1014.43 1014.28 1014.62 1015.24 1015.20 1015.81 1016.12 1016.30 1016.39 1016.46 1016.60 1016.64 1016.67 1015.73 1015.61 1015.90 1016.27 1016.84 1017.86 1018.76 1019.50 1020.13 1020.45 1020.56 1020.85 1020.94
1020.00 1019.75 1019.24 1018.70 1018.09 1017.23 1016.74 1017.87 1018.81 1019.30 1017.45 1015.42 1015.29 1015.15 1014.90 1014.95 1014.84 1014.52 1014.55 1014.63 1014.53 1015.08 1015.33 1015.84 1015.77 1015.66 1015.91 1016.10 1016.40 1016.78 1017.06 1016.70 1016.06 1015.84 1016.41 1016.55 1016.83 1017.02 1017.89 1018.64 1019.34 1019.96 1020.45 1020.71 1020.90
1019.82 1019.68 1019.26 1018.63 1017.99 1017.62 1018.29 1019.18 1019.34 1019.34 1018.68 1015.88 1015.32 1015.08 1014.99 1015.09 1014.89 1014.95 1015.05 1014.81 1014.80 1015.29 1015.55 1016.08 1015.51 1015.64 1015.95 1016.22 1016.73 1016.93 1017.24 1017.17 1017.13 1017.00 1016.79 1016.65 1015.98 1016.66 1017.55 1018.25 1019.07 1019.68 1020.22 1020.68 1020.77
1019.65 1019.69 1019.22 1018.64 1018.33 1018.40 1018.96 1019.32 1019.30 1019.30 1018.76 1016.13 1015.41 1015.07 1014.91 1014.83 1015.14 1015.24 1015.30 1015.25 1015.10 1015.41 1015.77 1016.01 1015.60 1015.89 1016.15 1016.45 1016.77 1017.15 1017.03 1017.45 1017.76 1018.23 1018.09 1017.49 1016.35 1017.09 1017.50 1018.50 1019.04 1019.47 1019.87 1020.12 1020.45
1019.43 1019.54 1019.33 1019.05 1019.12 1018.98 1019.54 1019.31 1019.29 1019.27 1018.61 1015.66 1015.24 1015.05 1014.79 1015.13 1015.51 1015.50 1015.56 1015.31 1015.44 1015.77 1016.28 1015.73 1015.81 1016.11 1016.34 1016.33 1016.63 1017.21 1017.65 1018.27 1018.55 1018.73 1018.91 1018.35 1019.03 1015.92 1016.99 1018.14 1018.53 1019.57 1020.27 1020.30 1020.28
1019.39 1019.35 1019.26 1019.13 1019.34 1019.53 1019.39 1019.35 1019.42 1019.15 1016.96 1015.15 1014.90 1014.88 1015.05 1015.04 1015.23 1015.51 1015.58 1015.52 1015.73 1016.04 1016.25 1016.14 1016.31 1016.42 1016.34 1016.73 1017.13 1017.54 1017.95 1018.21 1018.62 1019.53 1019.40 1017.81 1018.25 1016.29 1016.83 1015.96 1017.87 1019.06 1019.75 1019.99 1020.08
1019.17 1019.28 1019.34 1019.15 1019.21 1019.29 1019.38 1019.47 1019.57 1018.38 1015.35 1014.87 1014.65 1014.72 1014.88 1015.13 1015.28 1015.52 1015.76 1015.95 1016.38 1016.66 1017.22 1016.91 1016.68 1016.79 1017.04 1017.59 1017.92 1018.26 1018.94 1019.48 1019.67 1020.38 1018.99 1018.24 1018.26 1015.01 1014.89 1015.15 1016.37 1018.25 1019.09 1019.57 1019.92
1018.89 1019.15 1019.01 1018.79 1018.90 1019.16 1019.32 1019.60 1018.78 1016.45 1015.04 1014.31 1014.31 1014.63 1014.84 1014.77 1015.21 1015.75 1016.21 1016.55 1016.27 1016.85 1017.63 1017.88 1017.23 1017.41 1017.49 1017.65 1017.96 1018.69 1019.32 1020.68 1020.94 1021.18 1019.96 1018.98 1017.28 1015.00 1015.05 1015.38 1016.66 1017.75 1018.59 1019.32 1019.82
1018.67 1018.91 1018.97 1018.26 1018.69 1019.12 1019.23 1018.80 1016.52 1015.63 1014.19 1014.23 1014.71 1014.94 1015.05 1015.01 1015.47 1016.06 1016.54 1016.49 1016.01 1016.36 1017.47 1017.67 1017.55 1017.82 1018.09 1018.25 1018.67 1019.04 1019.44 1019.91 1020.86 1022.31 1021.24 1018.45 1016.15 1015.89 1016.15 1016.60 1017.13 1017.84 1018.61 1019.20 1019.48
1018.55 1018.30 1017.87 1017.63 1018.30 1019.02 1019.16 1016.93 1015.42 1013.96 1013.51 1013.62 1014.25 1014.38 1014.91 1015.14 1015.72 1016.13 1016.15 1015.57 1016.06 1016.25 1016.35 1017.65 1018.19 1018.32 1018.91 1019.07 1019.28 1019.48 1019.59 1020.39 1021.28 1022.12 1021.17 1018.34 1016.20 1015.32 1016.12 1016.47 1016.98 1017.65 1018.14 1018.42 1018.53
1018.46 1018.14 1017.14 1017.10 1018.01 1018.55 1017.32 1015.85 1014.56 1013.33 1013.03 1013.60 1013.64 1013.95 1014.21 1014.78 1015.18 1015.81 1015.48 1015.24 1015.52 1016.85 1016.94 1017.86 1018.85 1019.02 1019.34 1019.12 1018.97 1019.95 1019.94 1020.21 1020.56 1021.07 1020.35 1019.08 1013.76 1012.93 1013.97 1014.94 1016.27 1017.08 1017.55 1017.86 1018.39
1017.67 1017.86 1017.24 1017.37 1018.12 1016.91 1015.70 1014.48 1013.52 1012.69 1012.75 1012.87 1013.11 1013.29 1013.66 1014.15 1014.53 1015.03 1014.94 1014.85 1015.10 1015.91 1017.50 1017.82 1018.54 1019.06 1018.31 1017.93 1017.98 1018.12 1018.38 1019.07 1019.62 1019.13 1018.90 1018.23 1012.19 1012.48 1013.10 1014.21 1015.39 1016.44 1017.20 1017.64 1017.97
1016.72 1016.88 1017.36 1017.40 1016.37 1015.85 1014.40 1013.32 1012.84 1012.38 1012.35 1012.46 1012.58 1012.52 1012.96 1013.71 1014.52 1013.98 1014.43 1014.93 1015.01 1015.86 1016.56 1017.71 1018.41 1018.87 1018.09 1018.80 1018.38 1018.27 1017.92 1017.93 1017.98 1017.88 1016.80 1017.32 1013.14 1012.27 1012.87 1014.19 1015.05 1015.98 1016.68 1017.10 1017.39
1016.01 1016.01 1016.50 1016.40 1014.94 1014.76 1014.55 1012.73 1012.01 1011.10 1011.59 1011.64 1011.60 1012.12 1012.77 1013.17 1013.19 1013.52 1014.60 1015.46 1015.82 1016.28 1016.76 1017.41 1017.71 1017.51 1016.95 1016.05 1017.15 1017.57 1017.33 1017.55 1017.71 1017.64 1014.67 1013.19 1011.06 1012.36 1012.89 1013.78 1014.79 1015.62 1016.25 1016.76 1017.02
1013.78 1012.78 1012.73 1013.52 1013.52 1013.63 1013.21 1011.51 1011.35 1011.21 1010.75 1010.80 1010.70 1011.06 1011.62 1012.43 1012.85 1013.57 1014.48 1016.03 1016.66 1016.93 1017.35 1017.70 1017.75 1017.66 1016.21 1016.62 1017.23 1016.35 1016.47 1016.41 1016.22 1014.18 1014.91 1009.19 1011.25 1009.77 1011.05 1012.39 1013.42 1014.89 1015.62 1016.04 1016.45
1010.41 1010.91 1011.78 1011.15 1011.26 1012.33 1011.61 1009.50 1010.57 1010.49 1010.20 1009.27 1009.46 1009.85 1010.29 1010.44 1011.28 1012.08 1013.57 1014.70 1015.59 1017.56 1017.89 1018.14 1017.50 1017.67 1016.43 1016.77 1016.80 1015.18 1015.52 1014.88 1013.79 1012.24 1012.06 1010.52 1008.92 1008.20 1010.07 1011.65 1013.10 1014.35 1015.30 1015.72 1016.33
1007.94 1008.15 1009.12 1008.37 1009.51 1010.21 1008.17 1008.15 1007.56 1009.77 1008.83 1008.64 1008.71 1009.50 1009.82 1009.81 1010.90 1011.43 1012.41 1013.16 1013.71 1015.05 1016.86 1017.75 1017.94 1018.07 1016.61 1016.83 1017.13 1014.20 1011.73 1011.94 1010.89 1009.97 1010.35 1010.07 1006.68 1008.53 1010.10 1011.59 1012.97 1014.10 1014.87 1015.59 1016.30
Wind_Speed
18 19 20 20 20 19 18 18 17 15 14 14 12 10 8 10 10 5 7 5 7 15 9 7 4 5 2 1 1 3 5 2 3 4 3 4 3 7 5 11 8 7 6 5 4
18 19 20 21 20 19 18 17 16 16 14 13 12 10 8 8 1 8 2 9 9 8 4 7 6 7 2 0 3 5 3 0 1 2 3 1 4 5 6 8 6 8 6 9 10
17 18 19 20 21 19 18 17 15 15 14 11 10 8 8 3 3 3 8 8 8 5 4 3 4 2 3 2 2 2 2 1 2 4 3 2 5 4 11 4 1 9 7 8 10
16 17 19 20 21 20 19 18 16 16 14 10 8 6 6 2 2 2 7 8 9 5 3 5 5 2 2 2 0 1 3 3 2 4 3 1 3 5 4 5 8 10 8 9 10
16 16 17 18 20 20 20 18 16 15 13 11 8 6 1 3 3 1 7 7 3 4 5 5 6 4 2 3 2 3 3 1 2 4 3 2 5 8 7 8 9 10 11 10 9
15 17 17 18 20 21 21 20 16 15 13 9 6 5 2 1 2 3 5 2 5 4 4 6 2 2 4 2 3 1 2 5 1 4 3 3 6 9 6 6 9 10 9 8 9
15 16 18 18 20 21 23 22 17 15 12 6 4 2 2 2 3 2 2 1 0 2 3 2 1 2 5 4 2 1 3 4 4 4 4 3 3 7 12 7 10 9 8 8 8
15 16 17 19 20 21 23 24 19 16 10 3 1 2 1 2 1 2 4 2 2 2 3 2 1 0 0 4 4 0 3 2 4 7 4 3 6 4 12 13 10 9 7 8 5
14 15 17 19 20 21 22 25 20 11 5 3 2 2 2 1 1 1 2 1 3 2 2 2 3 1 3 2 5 3 3 3 2 7 3 4 6 9 10 12 10 8 8 7 6
12 14 16 19 21 21 23 20 6 8 2 2 1 3 2 2 1 3 1 1 0 1 2 1 2 3 4 4 4 4 4 4 5 4 6 7 8 6 10 11 10 8 7 7 6
11 13 16 18 21 21 12 7 10 7 10 5 4 3 2 5 2 2 1 2 1 2 3 4 3 4 4 0 1 4 5 7 7 6 8 8 7 11 10 8 10 9 8 7 7
11 11 15 18 20 20 2 7 3 2 10 4 1 3 3 3 2 1 6 2 3 0 3 7 5 6 6 5 5 6 7 8 9 3 1 6 10 6 17 13 11 10 8 7 5
7 10 14 17 20 4 5 4 1 0 2 4 3 3 1 3 1 2 3 1 2 2 2 4 4 4 3 2 3 5 6 5 7 6 6 7 8 7 6 6 8 7 7 6 7
8 8 13 22 3 3 2 1 1 1 5 7 2 2 2 1 1 1 2 1 1 1 1 6 3 3 2 5 6 6 2 2 5 4 4 2 11 4 9 10 12 9 8 7 7
3 5 11 7 3 1 2 1 0 2 5 4 2 1 1 3 2 1 1 1 3 5 6 11 4 5 4 5 4 6 2 5 5 9 3 6 6 6 13 13 13 8 7 7 7
4 1 8 3 2 1 1 1 2 6 9 3 4 4 2 2 2 3 1 2 2 1 3 7 3 5 7 3 3 2 3 6 4 2 5 10 12 5 9 16 14 7 8 8 6
6 2 2 1 2 3 1 2 5 5 4 5 5 5 3 5 3 4 3 0 2 5 3 5 5 2 3 2 3 2 3 6 6 2 9 2 2 15 7 8 18 14 10 8 6
7 2 5 3 4 4 2 5 6 7 8 2 3 3 6 7 4 4 4 3 5 3 1 4 7 6 4 4 6 6 7 6 8 5 7 7 10 6 2 11 13 10 9 8 6
8 2 2 3 6 3 5 5 12 10 5 8 2 3 5 4 3 4 7 7 7 9 9 3 6 2 4 1 3 3 5 2 2 2 3 6 6 4 3 8 8 9 8 8 7
2 3 5 7 8 4 3 15 9 8 6 4 9 9 8 6 6 7 7 6 5 5 3 4 8 0 2 2 2 2 4 2 1 4 8 7 9 10 13 14 9 8 8 6 2
2 3 1 7 5 2 10 11 12 10 5 8 9 6 7 7 9 7 8 4 6 4 5 5 5 2 4 8 10 2 4 4 3 5 6 3 9 5 18 17 12 9 8 7 6
3 4 4 4 3 4 14 10 6 8 18 17 8 10 10 7 7 9 12 11 9 9 10 8 5 6 12 4 2 3 10 11 7 7 5 8 20 8 14 13 11 9 8 7 6
4 5 3 2 9 11 5 10 15 8 11 7 9 10 9 9 7 11 10 1 10 11 12 9 4 3 8 5 4 7 6 6 3 0 19 10 13 1 9 11 8 10 8 7 6
4 5 4 6 6 7 11 16 15 11 23 8 7 7 5 6 10 6 8 3 2 3 7 8 6 10 19 20 4 9 9 10 14 11 22 28 35 12 7 12 9 8 8 8 6
6 8 9 8 14 18 11 6 19 14 8 19 11 20 13 11 8 12 6 2 1 7 5 8 10 7 18 14 6 22 15 16 20 27 21 40 26 27 18 17 10 9 7 3 1
9 7 3 4 9 23 28 29 26 9 14 21 22 15 24 26 19 10 14 9 10 5 7 4 7 4 18 9 17 29 19 21 28 31 31 33 39 28 18 6 8 8 6 3 1
9 3 8 11 13 14 22 28 28 23 16 15 22 20 18 20 17 12 5 4 7 15 14 11 6 5 17 2 5 18 24 31 23 25 24 27 36 22 15 8 8 7 5 4 4
Wind_Direction
5 3 0 357 352 351 353 352 347 341 346 345 346 341 354 350 323 24 45 314 306 314 323 283 313 293 356 312 74 77 66 326 8 70 123 342 105 39 46 84 41 49 91 135 56
1 1 358 355 351 346 348 348 344 334 345 344 346 340 2 358 21 55 311 300 298 313 344 6 348 346 356 92 4 76 92 235 23 63 130 107 119 123 80 99 76 84 67 70 52
357 357 354 351 348 345 344 343 341 331 339 345 340 341 341 29 59 339 306 318 306 295 249 298 291 285 334 63 13 346 199 38 51 109 61 55 52 11 128 58 122 142 119 83 64
351 349 351 350 345 344 340 338 337 330 333 345 335 338 319 88 125 294 320 318 307 296 298 6 350 33 332 177 122 26 281 67 39 52 67 49 79 69 40 123 149 126 118 94 78
345 344 347 344 341 340 335 332 331 325 331 338 338 339 171 68 184 303 340 339 3 2 46 18 35 353 344 338 350 173 245 349 69 79 88 3 139 132 114 147 122 102 90 88 76
345 340 342 343 339 337 332 326 327 320 325 331 340 326 108 259 170 6 342 359 24 35 44 38 38 317 280 258 137 315 332 293 145 156 157 139 130 90 233 145 107 102 102 101 96
343 341 339 339 338 335 328 321 323 313 315 325 341 283 88 194 157 28 36 175 12 54 91 61 354 80 331 326 56 88 346 17 201 200 228 151 257 184 150 151 128 127 124 119 115
339 338 336 334 336 333 326 317 320 307 296 289 300 194 182 168 112 37 345 208 183 94 96 113 55 94 144 320 350 136 133 152 246 160 251 110 273 148 162 142 146 134 127 120 123
333 336 335 335 332 329 325 313 310 295 254 276 189 118 256 132 145 325 106 228 293 147 89 110 60 101 27 51 358 355 266 257 295 207 158 162 249 168 174 157 149 150 141 129 103
328 334 334 333 329 329 325 307 290 326 228 220 291 35 139 179 293 326 221 224 345 332 46 17 62 50 16 76 246 274 300 295 265 232 202 201 241 179 174 157 158 154 146 136 113
324 333 333 331 328 326 347 2 12 346 38 240 260 251 42 313 106 199 271 312 140 36 10 289 66 258 209 136 255 261 259 250 261 246 200 226 238 189 179 159 166 169 161 143 109
322 333 331 326 325 320 45 75 126 203 305 303 227 287 227 127 331 281 13 153 95 273 337 13 250 195 172 206 225 231 261 270 286 168 312 259 248 236 184 181 169 165 163 142 119
324 334 329 323 319 9 73 110 327 8 315 300 210 239 178 151 245 216 346 142 140 159 141 173 225 173 181 205 231 246 227 252 255 333 297 281 274 187 191 154 170 168 142 138 136
310 333 330 325 26 318 69 56 315 54 45 272 235 227 167 164 273 352 350 99 229 268 188 235 215 166 196 243 174 260 164 225 282 357 241 118 287 214 179 182 183 177 159 147 128
269 331 326 354 279 50 131 286 197 67 1 256 195 178 119 155 130 204 282 6 181 197 101 249 196 212 229 227 150 240 52 248 248 244 1 232 254 256 166 204 194 171 165 148 145
223 336 339 42 328 103 216 267 80 52 249 225 146 183 137 196 206 148 11 52 135 31 237 243 8 172 205 139 186 15 309 262 213 162 257 231 201 233 183 215 173 167 161 151 137
201 192 318 161 224 172 156 59 39 161 275 209 203 174 181 197 211 177 166 240 185 340 306 336 217 94 123 130 20 78 50 321 341 335 237 183 277 246 212 188 170 158 161 156 143
184 191 223 229 153 141 93 59 192 225 244 130 140 143 191 164 218 148 125 256 245 168 331 225 302 177 174 192 185 192 164 167 261 238 271 324 255 242 146 121 126 141 148 150 168
143 216 227 234 153 117 96 193 195 199 215 158 83 180 237 218 188 145 206 214 215 167 185 249 257 94 40 8 141 180 183 165 289 104 8 238 279 339 130 139 142 147 152 171 179
196 221 205 151 139 94 114 224 219 215 140 152 184 180 204 202 174 180 193 203 205 187 152 199 291 87 165 57 323 216 173 86 68 285 273 267 260 232 191 198 181 168 162 167 139
206 253 255 122 109 130 210 220 225 235 144 174 204 228 218 188 191 197 223 249 162 126 106 148 169 200 127 198 186 145 227 230 185 174 233 284 251 232 191 188 183 181 166 176 203
201 231 195 136 163 206 220 198 229 202 228 243 200 214 221 175 240 229 223 203 160 150 160 204 167 231 224 209 229 178 201 187 205 222 241 256 272 173 185 180 160 166 173 182 198
221 199 261 141 214 220 243 219 232 176 212 203 218 210 186 193 249 220 212 60 157 152 170 182 214 347 299 5 342 226 204 212 268 306 236 247 262 157 143 151 166 166 186 186 200
159 217 167 210 233 223 220 240 224 211 229 217 219 171 160 216 223 246 198 220 163 112 148 149 202 199 252 269 128 234 187 203 216 243 254 239 260 233 199 177 179 182 182 190 193
191 227 186 199 212 224 215 228 217 223 215 201 232 217 196 225 193 226 198 140 300 168 164 164 240 195 256 274 281 266 251 226 219 236 233 259 247 259 249 244 225 176 157 121 29
185 165 194 197 178 202 221 230 233 223 198 217 224 200 214 228 213 209 212 179 196 167 162 177 252 157 273 236 245 260 249 245 240 244 245 252 267 259 274 150 151 153 155 117 84
197 180 189 209 197 196 212 225 227 214 247 233 214 225 223 225 226 239 178 191 193 163 182 167 185 156 259 102 322 272 234 228 240 239 229 241 246 277 255 186 166 154 129 101 50